EW9778 Weather Reports


time (UTC)temp
F
wind
direction
speed
knots
gust
knots
rain 1hr
in
rain 24hr
in
rain mn
in
humidity
%
barometer
mb
20260506004506 80 194 2.6 7.8 0.00 0.00 0.00 79 1005.6
20260506003003 80 182 1.7 11.3 0.00 0.00 0.00 78 1005.4
20260506001538 80 184 4.3 12.2 0.00 0.00 0.00 78 1005.4
20260506000038 80 247 4.3 9.6 0.00 0.00 0.00 78 1005.4
20260505234530 81 203 4.3 8.7 0.00 0.00 0.00 78 1005.2
20260505233029 81 163 4.3 10.4 0.00 0.00 0.00 78 1005.3
20260505231533 81 170 4.3 7.8 0.00 0.00 0.00 78 1005.3
20260505230035 81 195 4.3 8.7 0.00 0.00 0.00 77 1005.4
20260505224525 81 211 5.2 11.3 0.00 0.00 0.00 76 1005.3
20260505223030 82 197 4.3 11.3 0.00 0.00 0.00 77 1005.4
20260505221525 82 191 1.7 8.7 0.00 0.00 0.00 76 1005.4
20260505220021 83 190 3.5 9.6 0.00 0.00 0.00 75 1005.6
20260505214524 83 200 2.6 8.7 0.00 0.00 0.00 75 1005.7
20260505213019 83 193 1.7 7.8 0.00 0.00 0.00 75 1005.9
20260505211515 83 223 4.3 9.6 0.00 0.00 0.00 75 1006.0
20260505210014 83 198 3.5 10.4 0.00 0.00 0.00 76 1006.1
20260505204508 83 196 2.6 8.7 0.00 0.00 0.00 76 1006.3
20260505203007 83 218 2.6 9.6 0.00 0.00 0.00 75 1006.6
20260505201511 83 210 2.6 8.7 0.00 0.00 0.00 75 1006.9
20260505200003 82 232 2.6 8.7 0.00 0.00 0.00 76 1006.9
20260505194533 82 221 2.6 7.8 0.00 0.00 0.00 76 1007.2
20260505193034 82 199 4.3 11.3 0.00 0.00 0.00 76 1007.3
20260505191523 81 214 3.5 7.0 0.00 0.00 0.00 78 1007.4
20260505190027 81 175 2.6 12.2 0.00 0.00 0.00 78 1007.5
20260505184521 81 228 4.3 8.7 0.00 0.00 0.00 79 1007.6
20260505183027 80 300 2.6 9.6 0.00 0.00 0.00 78 1007.7
20260505181550 80 202 1.7 7.8 0.00 0.00 0.00 79 1007.7
20260505180050 80 185 2.6 9.6 0.00 0.00 0.00 80 1007.9
20260505174514 79 167 2.6 7.8 0.00 0.00 0.00 79 1008.1
20260505173013 79 193 2.6 10.4 0.00 0.00 0.00 80 1008.2
20260505171508 79 218 3.5 9.6 0.00 0.00 0.00 80 1008.2
20260505170008 78 219 2.6 7.0 0.00 0.00 0.00 81 1008.4
20260505164506 78 202 0.9 12.2 0.00 0.00 0.00 82 1008.4
20260505163009 78 174 3.5 7.8 0.00 0.00 0.00 81 1008.2
20260505161608 78 208 2.6 6.1 0.00 0.00 0.00 81 1008.2
20260505153101 77 224 3.5 8.7 0.00 0.00 0.00 83 1007.9
20260505151603 76 229 3.5 8.7 0.00 0.00 0.00 83 1007.9
20260505140106 75 213 1.7 5.2 0.00 0.00 0.00 85 1007.9
20260505124540 73 196 0.0 7.8 0.00 0.00 0.00 86 1007.7
20260505123042 73 205 3.5 7.8 0.00 0.00 0.00 87 1007.6
20260505121540 73 221 0.9 5.2 0.00 0.00 0.00 86 1007.5
20260505120045 72 227 2.6 7.8 0.00 0.00 0.00 87 1007.0
20260505114543 72 182 2.6 5.2 0.00 0.00 0.00 87 1007.2
20260505113033 72 215 1.7 6.1 0.00 0.00 0.00 87 1007.4
20260505111533 72 207 0.9 7.0 0.00 0.00 0.00 87 1007.2
20260505101558 72 194 2.6 7.0 0.00 0.00 0.00 86 1007.2
20260505100058 72 202 2.6 5.2 0.00 0.00 0.00 86 1007.5
20260505094557 71 189 1.7 5.2 0.00 0.00 0.00 86 1007.2
20260505093025 72 190 2.6 7.0 0.00 0.00 0.00 85 1007.3
20260505091524 71 222 0.0 4.3 0.00 0.00 0.00 86 1007.6
20260505090053 71 209 0.9 3.5 0.00 0.00 0.00 86 1007.6
20260505084555 71 184 1.7 6.1 0.00 0.00 0.00 85 1007.6
20260505083054 71 219 0.9 4.3 0.00 0.00 0.00 85 1007.8
20260505081548 71 178 1.7 6.1 0.00 0.00 0.00 85 1007.8
20260505080046 71 207 1.7 4.3 0.00 0.00 0.00 85 1008.0
20260505074545 71 207 0.9 5.2 0.00 0.00 0.00 84 1008.0
20260505073051 71 200 0.9 4.3 0.00 0.00 0.00 84 1008.1
20260505071552 71 207 1.7 6.1 0.00 0.00 0.00 84 1008.3
20260505070040 71 188 0.9 6.1 0.00 0.00 0.00 83 1008.2
20260505064538 71 180 2.6 7.8 0.00 0.00 0.00 83 1008.4
20260505063007 71 215 1.7 4.3 0.00 0.00 0.00 82 1008.8
20260505061501 71 233 1.7 9.6 0.00 0.00 0.00 82 1009.1
20260505060059 71 223 0.9 7.8 0.00 0.00 0.00 81 1009.0
20260505054559 71 220 2.6 6.1 0.00 0.00 0.00 81 1009.0
20260505053056 71 190 1.7 7.8 0.00 0.00 0.00 80 1009.2
20260505051605 71 214 2.6 7.0 0.00 0.00 0.00 80 1009.4
20260505041547 72 208 2.6 8.7 0.00 0.00 0.00 78 1009.2
20260505040044 72 188 3.5 8.7 0.00 0.00 0.00 78 1009.8
20260505034542 73 193 3.5 8.7 0.00 0.00 0.00 77 1009.9
20260505033040 73 186 3.5 8.7 0.00 0.00 0.00 76 1010.0
20260505031544 73 184 4.3 12.2 0.00 0.00 0.00 76 1009.8
20260505030035 73 205 4.3 9.6 0.00 0.00 0.00 76 1009.8
20260505024534 73 221 4.3 10.4 0.00 0.00 0.00 76 1009.9
20260505023032 74 186 3.5 9.6 0.00 0.00 0.00 76 1009.6
20260505021531 74 198 3.5 7.8 0.00 0.00 0.00 75 1009.7
20260505020032 74 220 4.3 13.9 0.00 0.00 0.00 75 1009.5
20260505020029 74 198 4.3 13.9 0.00 0.00 0.00 75 1009.5
20260505014559 74 204 3.5 8.7 0.00 0.00 0.00 74 1009.3
20260505013126 75 215 5.2 12.2 0.00 0.00 0.00 73 1009.4
20260505011605 75 198 3.5 10.4 0.00 0.00 0.00 73 1009.1
20260505010105 75 223 2.6 10.4 0.00 0.00 0.00 72 1009.1